TIME,DELAY(SENSOR),PRES,OXYGEN,RAWTEMP,T(OPTODE),TCPHASE,FLUOR,BETA(BETA700),BETA(BETA412),BETA(BETA440),CDOM,C(CSC),ED(ED412.40),ED(ED444.00),ED(ED489.70),ED(ED554.30),LU(LU411.80),LU(LU443.40),LU(LU489.60),LU(LU554.10),COMP,TILTX,TILTY,CHECK
1334635195,5808,887.0599975585938000,42.5196113586425800,662.7661743164062000,4.5368628501892090,54.6526908874511700,53,101,87,80,83,15271,2147759478,2147420132,2148000329,2147870518,2147639616,2147069750,2148255972,2147204379,2480,4,14,101
1334638791,5810,969.7199707031250000,46.4926910400390600,670.7647705078125000,4.2729301452636720,54.1746711730957000,52,98,89,80,83,15272,2147758829,2147422326,2148004928,2147875593,2147641901,2147070198,2148255762,2147201280,488,4,14,6839
1334642391,5809,994.7700195312500000,47.7672386169433600,672.4268188476562000,4.2179989814758300,54.0109596252441400,52,100,89,79,84,15262,2147762486,2147418925,2148006089,2147876160,2147641901,2147067364,2148258130,2147200228,836,4,13,64623
1334645991,5809,995.0200195312500000,48.2389602661132800,673.6240844726562000,4.1784038543701170,53.9574508666992200,52,98,88,80,84,15266,2147759597,2147421988,2148008978,2147877010,2147642459,2147062153,2148260022,2147198628,205,4,13,62490
1334649591,5809,1000.9600219726562000,47.9679603576660160,673.5247802734375000,4.1816878318786620,53.9945106506347660,52,100,88,78,83,15263,2147759625,2147420745,2148002258,2147876269,2147641856,2147063305,2148258203,2147204096,3399,4,13,47380
1334653191,5808,1011.5700073242188000,47.3517112731933600,672.7172241210938000,4.2083969116210940,54.0728607177734400,53,99,92,79,85,15266,2147763163,2147423177,2148005412,2147877211,2147641316,2147064896,2148260553,2147198253,3558,4,14,61041
1334656791,5808,1017.6500244140625000,46.5396003723144500,672.0557250976562000,4.2302670478820800,54.1833992004394500,52,98,86,78,83,15259,2147759451,2147422445,2148004891,2147875456,2147641645,2147072246,2148260635,2147204598,691,4,13,53467
1334660391,5809,1009.1599731445312000,46.4334983825683600,672.4882202148438000,4.2159671783447270,54.1985015869140600,52,101,91,79,84,15258,2147759954,2147422994,2148005485,2147876626,2147641874,2147066221,2148261293,2147200740,3424,4,13,27975
1334663991,5810,1005.5700073242188000,47.0428695678710940,672.6956176757812000,4.2091097831726070,54.1133613586425800,53,100,87,79,82,15258,2147763200,2147420662,2148007579,2147874825,2147643501,2147065737,2148261165,2147201773,1494,4,13,53370
1334667591,5808,1004.9799804687500000,47.3824996948242200,673.9401245117188000,4.1679520606994630,54.0802993774414060,53,100,89,79,84,15257,2147759195,2147420434,2148007625,2147875968,2147636818,2147069467,2148261403,2147204406,230,4,13,5745
1334671191,5809,1013.1099853515625000,47.6237907409668000,674.0546875000000000,4.1641640663146970,54.0521316528320300,53,99,87,79,84,15259,2147760393,2147418998,2148006921,2147876525,2147644233,2147063469,2148258916,2147200256,3459,4,13,15
1334674791,5810,1009.0499877929688000,47.5578117370605500,674.1671752929688000,4.1604399681091310,54.0601310729980500,52,100,85,80,83,15259,2147759808,2147420580,2148006226,2147877467,2147644160,2147062354,2148260397,2147202166,3432,4,13,34955
1334678391,5807,1013.4500122070312000,47.7852096557617200,674.2069702148438000,4.1591219902038570,54.0315895080566400,53,98,90,80,83,15260,2147756150,2147420096,2148005961,2147874596,2147644918,2147068525,2148262683,2147202916,3388,4,13,13425
1334681991,5809,1017.5200195312500000,47.7644882202148440,674.0974731445312000,4.1627478599548340,54.0315513610839840,52,99,89,79,83,15262,2147761673,2147419968,2148011437,2147874157,2147645074,2147065024,2148259035,2147200137,46,4,13,29577
1334685591,5811,1017.2800292968750000,47.4095191955566400,674.0460815429688000,4.1644458770751950,54.0800209045410160,52,103,90,79,84,15263,2147759808,2147421686,2148005933,2147874203,2147644562,2147072054,2148253174,2147201124,338,4,13,4221
1334689191,5808,1016.6500244140625000,47.6575317382812500,674.9959716796875000,4.1330199241638180,54.0555305480957000,53,99,86,83,83,15261,2147763081,2147422528,2148008585,2147876617,2147643154,2147069001,2148261321,2147201563,3420,4,13,60743
1334692791,5807,1021.3800048828125000,47.9061584472656250,674.4345092773438000,4.1515979766845700,54.0201301574707000,53,99,86,79,84,15256,2147756342,2147420790,2148007835,2147874624,2147642550,2147069531,2148261522,2147200338,2974,4,13,36920
1334696391,5809,1021.7399902343750000,47.1109886169433600,673.6890869140625000,4.1762537956237790,54.1218109130859400,53,98,88,79,83,15261,2147763620,2147422482,2148010066,2147872859,2147644086,2147071561,2148263259,2147203026,590,4,13,13145
1334699991,5806,1024.4599609375000000,47.3692588806152340,674.2750854492188000,4.1568717956542970,54.0878181457519500,52,99,87,79,84,15257,2147760722,2147423707,2148006116,2147873828,2147643602,2147067483,2148257883,2147200548,3500,4,13,50359
1334703591,5809,1021.4699707031250000,46.8867416381835940,673.4080810546875000,4.1855487823486330,54.1440811157226560,53,98,92,80,85,15257,2147762258,2147418907,2148007433,2147875675,2147642715,2147063524,2148261705,2147201152,319,4,13,23591
1334707191,5810,1020.5100097656250000,47.4641914367675800,674.0012207031250000,4.1659321784973145,54.0750885009765600,53,98,88,79,83,15259,2147763401,2147420150,2148008457,2147875538,2147646180,2147065051,2148262162,2147198006,3548,4,13,54419
1334710791,5809,1014.5700073242188000,47.6474189758300800,675.3583984375000000,4.1210250854492190,54.0611610412597660,53,99,88,79,84,15259,2147764315,2147424237,2148006326,2147876297,2147644690,2147068187,2148258971,2147203620,456,4,14,8438
1334714391,5810,1009.5800170898438000,47.5032005310058600,675.8272094726562000,4.1055088043212890,54.0940208435058600,52,100,89,80,84,15256,2147761426,2147422710,2148014125,2147876827,2147644086,2147062729,2148262390,2147200932,43,4,13,6621
1334717991,5808,1014.7999877929688000,47.3592910766601560,675.7797241210938000,4.1070799827575680,54.1068000793457000,54,101,88,79,83,15260,2147759433,2147424457,2148008045,2147876297,2147644717,2147069193,2148264393,2147200402,194,4,13,5057
1334721591,5810,1014.8200073242188000,47.5905609130859400,675.4686279296875000,4.1173782348632810,54.0760116577148440,52,98,88,78,83,15257,2147764324,2147421549,2148008905,2147876955,2147645357,2147065362,2148254811,2147199158,620,4,13,10827
1334725191,5807,1028.0300292968750000,47.0020484924316400,675.4741210937500000,4.1171989440917970,54.1594505310058600,51,100,86,80,84,15254,2147761682,2147421814,2148008804,2147871689,2147643428,2147064987,2148262528,2147202688,608,4,13,59949
1334728791,5811,1019.2500000000000000,47.5431594848632800,674.7979125976562000,4.1395759582519530,54.0716896057128900,52,101,92,80,84,15256,2147762450,2147419712,2148005659,2147876928,2147641005,2147063433,2148259483,2147197549,495,4,13,14004
1334732391,5806,1020.4199829101562000,47.5066909790039060,674.7211303710938000,4.1421151161193850,54.0785102844238300,53,100,88,80,83,15230,2147766592,2147419392,2148007771,2147877001,2147641316,2147063661,2148264576,2147199488,135,4,14,64786
1334735991,5810,1014.5200195312500000,47.5721702575683600,674.9912719726562000,4.1331768035888670,54.0733909606933600,53,99,89,79,84,15177,2147762569,2147420406,2148005513,2147876873,2147643739,2147065865,2148255003,2147204224,853,4,13,13502
1334739591,5808,1023.5800170898438000,47.7654914855957000,674.9656982421875000,4.1340222358703610,54.0459899902343750,52,100,84,80,83,15176,2147760457,2147420946,2148008237,2147873490,2147641261,2147066221,2148259126,2147199917,509,4,13,59593
1334743191,5807,1031.7500000000000000,47.5784606933593750,674.9359130859375000,4.1350078582763670,54.0726890563964840,52,99,91,80,84,15180,2147763035,2147422912,2148008941,2147874240,2147639506,2147065600,2148263606,2147199634,400,4,13,20672
1334746791,5808,1028.0799560546875000,47.7663612365722660,674.6851806640625000,4.1433010101318360,54.0378990173339840,53,99,85,80,83,15173,2147762258,2147426843,2148008402,2147877440,2147645430,2147062683,2148263186,2147202139,686,4,13,27485
1334750391,5812,1022.8599853515625000,47.3125610351562500,674.9578247070312000,4.1342811584472660,54.1063194274902340,52,99,88,80,83,15177,2147761353,2147424758,2148007753,2147874980,2147644443,2147065216,2148259913,2147198528,705,4,13,18840
1334753991,5808,1017.4500122070312000,47.2347793579101560,674.8518066406250000,4.1377911567687990,54.1180686950683600,53,103,92,78,83,15174,2147761216,2147424960,2148009993,2147876772,2147644050,2147067748,2148262107,2147200329,3541,4,13,34533
1334757591,5810,1022.3699951171875000,47.9180603027343750,675.7222900390625000,4.1089820861816410,54.0307197570800800,53,98,91,79,84,15171,2147759405,2147421513,2148005110,2147873334,2147643300,2147066523,2148262994,2147205577,368,4,13,6514
1334761191,5806,1026.2299804687500000,47.7463417053222660,675.0775756835938000,4.1303181648254395,54.0486106872558600,53,98,89,81,84,15172,2147760182,2147423158,2148008749,2147875008,2147642441,2147066166,2148265380,2147203200,405,4,13,31645
1334764791,5810,1014.2899780273438000,48.4026298522949200,677.3286132812500000,4.0557990074157715,53.9870109558105500,53,103,84,80,84,15174,2147758710,2147423926,2148005732,2147873060,2147642276,2147068160,2148262518,2147204406,350,4,13,39869
1334768391,5806,1015.7700195312500000,48.5875511169433600,677.6693115234375000,4.0445160865783690,53.9633789062500000,52,100,87,78,83,15174,2147759972,2147421915,2148010130,2147875785,2147641106,2147068544,2148263021,2147202459,145,4,13,36214
1334771991,5810,1020.9699707031250000,48.7202606201171900,677.4619750976562000,4.0513820648193360,53.9431686401367200,53,99,89,80,83,15171,2147761152,2147421074,2148009426,2147873819,2147645174,2147066907,2148261412,2147204571,157,4,13,28151
1334775591,5809,1020.7600097656250000,47.6918792724609400,676.2736206054688000,4.0907330513000490,54.0732994079589840,52,97,90,80,84,15171,2147760329,2147419949,2148008192,2147873499,2147645412,2147069074,2148263652,2147204214,3506,4,13,46250
1334778956,5810,1029.6400146484375000,47.9429016113281250,675.5968017578125000,4.1131358146667480,54.0268898010253900,53,99,93,79,83,15260,2147761307,2147422308,2148008118,2147874395,2147643373,2147067739,2148259190,2147201225,564,4,13,4434
